Date String (YYYY-MM-DD hh:mm:ss) UTC,Instrument flags,Ambient pressure (hPa),Sample flow (lpm),Bypass flow (lpm),Sample temperature (°C),Ambient temperature (°C),ASC tube jacket temperature (°C),LED temperature (°C),Box temperature (°C),Sample RH (%),Span deviation,Mass concentration (μg/m³),Mass concentration (μg/m³),Mass concentration (μg/m³)
DateTimeUTC,F1_M11,P_M11,Q1_M11,Q2_M11,T1_M11,T2_M11,T3_M11,T4_M11,T5_M11,U1_M11,ZSPAN_M11,X0_M11,X2_M11,X1_M11
2021-10-25 01:00:00,,0823.2,5.00,0.00,29.7,28.4,00.0,38.9,31.4,11.2,0000.0,0012.65,0003.18,0001.63
2021-10-25 01:01:00,,0823.2,5.00,0.00,29.7,28.6,00.0,38.9,31.4,11.2,0000.0,0013.40,0003.20,0001.63
2021-10-25 01:02:00,,0823.2,4.99,0.00,29.7,28.6,00.0,38.9,31.5,11.2,0000.0,0013.60,0003.16,0001.63
2021-10-25 01:03:00,,0823.2,5.01,0.00,29.8,28.7,00.0,38.9,31.5,11.2,0000.0,0013.39,0003.16,0001.62
2021-10-25 01:04:00,,0823.2,5.00,0.00,29.8,28.8,00.0,38.8,31.6,11.2,0000.0,0013.77,0003.14,0001.63
2021-10-25 01:05:00,,0823.2,5.00,0.00,29.8,28.8,00.0,38.8,31.5,11.2,0000.0,0013.40,0003.13,0001.65
2021-10-25 01:06:00,,0823.2,5.00,0.00,29.8,28.9,00.0,38.8,31.5,11.2,0000.0,0013.16,0003.13,0001.66
2021-10-25 01:07:00,,0823.2,5.00,0.00,29.8,28.9,00.0,38.9,31.6,11.2,0000.0,0013.96,0003.15,0001.66
2021-10-25 01:08:00,,0823.2,5.01,0.00,29.8,28.9,00.0,38.9,31.6,11.2,0000.0,0015.01,0003.16,0001.67
2021-10-25 01:09:00,,0823.3,4.99,0.00,29.8,29.0,00.0,38.9,31.6,11.2,0000.0,0014.86,0003.20,0001.70
2021-10-25 01:10:00,,0823.2,5.00,0.00,29.8,29.0,00.0,38.9,31.6,11.2,0000.0,0015.27,0003.21,0001.72
2021-10-25 01:11:00,,0823.3,5.00,0.00,29.9,29.0,00.0,38.9,31.7,11.2,0000.0,0016.24,0003.22,0001.73
2021-10-25 01:12:00,,0823.3,5.02,0.00,29.9,29.1,00.0,38.9,31.7,11.2,0000.0,0015.12,0003.21,0001.74
2021-10-25 01:13:00,,0823.3,4.98,0.00,29.9,29.1,00.0,38.9,31.7,11.2,0000.0,0014.61,0003.24,0001.77
2021-10-25 01:14:00,,0823.4,5.01,0.00,29.9,29.1,00.0,38.9,31.7,11.2,0000.0,0014.37,0003.29,0001.79
2021-10-25 01:15:00,,0823.4,4.98,0.00,29.9,29.1,00.0,38.9,31.7,11.2,0000.0,0014.09,0003.34,0001.82
2021-10-25 01:16:00,,0823.4,5.00,0.00,29.9,29.1,00.0,38.9,31.7,11.2,0000.0,0015.13,0003.33,0001.83
2021-10-25 01:17:00,,0823.4,5.00,0.00,29.9,29.1,00.0,38.9,31.7,11.2,0000.0,0015.82,0003.33,0001.83
2021-10-25 01:18:00,,0823.4,5.01,0.00,29.9,29.1,00.0,38.9,31.8,11.2,0000.0,0014.94,0003.39,0001.85
2021-10-25 01:19:00,,0823.4,4.99,0.00,29.9,29.1,00.0,39.0,31.7,11.2,0000.0,0014.07,0003.40,0001.87
2021-10-25 01:20:00,,0823.3,5.01,0.00,29.9,29.1,00.0,39.0,31.7,11.2,0000.0,0013.71,0003.37,0001.86
2021-10-25 01:21:00,,0823.3,5.00,0.00,29.9,29.1,00.0,39.0,31.7,11.2,0000.0,0012.66,0003.38,0001.86
2021-10-25 01:22:00,,0823.3,5.00,0.00,30.0,29.1,00.0,39.0,31.7,11.2,0000.0,0012.44,0003.42,0001.86
2021-10-25 01:23:00,,0823.3,5.01,0.00,30.0,29.2,00.0,39.0,31.7,11.2,0000.0,0012.41,0003.42,0001.86
2021-10-25 01:24:00,,0823.3,5.01,0.00,30.0,29.2,00.0,39.0,31.7,11.2,0000.0,0011.92,0003.42,0001.86
2021-10-25 01:25:00,,0823.3,4.99,0.00,30.0,29.2,00.0,39.0,31.7,11.3,0000.0,0012.24,0003.39,0001.85
2021-10-25 01:26:00,,0823.3,4.99,0.00,30.0,29.2,00.0,39.0,31.7,11.3,0000.0,0012.50,0003.38,0001.83
2021-10-25 01:27:00,,0823.4,5.01,0.00,30.0,29.2,00.0,39.0,31.8,11.2,0000.0,0011.82,0003.42,0001.84
2021-10-25 01:28:00,,0823.4,5.01,0.00,30.0,29.2,00.0,39.0,31.7,11.3,0000.0,0010.92,0003.40,0001.85
2021-10-25 01:29:00,,0823.4,5.00,0.00,30.0,29.2,00.0,39.0,31.7,11.3,0000.0,0010.87,0003.34,0001.84
2021-10-25 01:30:00,,0823.4,5.00,0.00,29.9,29.1,00.0,39.0,31.7,11.3,0000.0,0011.84,0003.32,0001.83
2021-10-25 01:31:00,,0823.4,4.99,0.00,29.9,29.1,00.0,39.0,31.7,11.3,0000.0,0011.81,0003.30,0001.84
2021-10-25 01:32:00,,0823.4,5.00,0.00,29.9,29.1,00.0,39.0,31.6,11.3,0000.0,0012.51,0003.30,0001.84
2021-10-25 01:33:00,,0823.4,5.00,0.00,29.9,29.1,00.0,39.0,31.6,11.3,0000.0,0011.74,0003.26,0001.83
2021-10-25 01:34:00,,0823.4,4.99,0.00,29.9,29.1,00.0,39.0,31.6,11.3,0000.0,0011.68,0003.24,0001.83
2021-10-25 01:35:00,,0823.4,5.01,0.00,29.9,29.1,00.0,39.0,31.6,11.3,0000.0,0011.62,0003.19,0001.82
2021-10-25 01:36:00,,0823.4,5.00,0.00,29.8,29.1,00.0,39.0,31.6,11.3,0000.0,0011.25,0003.18,0001.81
2021-10-25 01:37:00,,0823.4,4.99,0.00,29.8,29.1,00.0,39.0,31.6,11.3,0000.0,0011.03,0003.15,0001.80
2021-10-25 01:38:00,,0823.4,5.00,0.00,29.8,29.1,00.0,39.0,31.6,11.3,0000.0,0011.18,0003.13,0001.80
2021-10-25 01:39:00,,0823.4,5.00,0.00,29.8,29.0,00.0,39.0,31.6,11.3,0000.0,0010.75,0003.10,0001.80
2021-10-25 01:40:00,,0823.4,5.01,0.00,29.8,29.0,00.0,39.0,31.6,11.4,0000.0,0010.72,0003.07,0001.78
2021-10-25 01:41:00,,0823.4,5.00,0.00,29.8,29.1,00.0,39.0,31.6,11.4,0000.0,0009.79,0003.10,0001.78
2021-10-25 01:42:00,,0823.4,4.99,0.00,29.8,29.1,00.0,39.0,31.6,11.4,0000.0,0009.69,0003.15,0001.79
2021-10-25 01:43:00,,0823.4,5.01,0.00,29.8,29.0,00.0,39.0,31.6,11.4,0000.0,0009.36,0003.19,0001.79
2021-10-25 01:44:00,,0823.3,5.00,0.00,29.8,29.1,00.0,38.9,31.6,11.4,0000.0,0009.65,0003.19,0001.80
2021-10-25 01:45:00,,0823.3,5.00,0.00,29.8,29.1,00.0,38.9,31.6,11.4,0000.0,0009.90,0003.18,0001.79
2021-10-25 01:46:00,,0823.4,5.00,0.00,29.8,29.1,00.0,38.9,31.6,11.4,0000.0,0010.08,0003.26,0001.80
2021-10-25 01:47:00,,0823.4,5.00,0.00,29.8,29.1,00.0,38.9,31.6,11.4,0000.0,0010.58,0003.26,0001.81
2021-10-25 01:48:00,,0823.4,5.00,0.00,29.8,29.1,00.0,38.9,31.6,11.4,0000.0,0010.60,0003.25,0001.82
2021-10-25 01:49:00,,0823.4,5.01,0.00,29.8,29.1,00.0,38.9,31.6,11.4,0000.0,0009.81,0003.28,0001.83
2021-10-25 01:50:00,,0823.5,5.00,0.00,29.8,29.1,00.0,38.9,31.6,11.4,0000.0,0009.61,0003.28,0001.83
2021-10-25 01:51:00,,0823.6,5.00,0.00,29.8,29.1,00.0,38.9,31.6,11.4,0000.0,0009.60,0003.31,0001.84
2021-10-25 01:52:00,,0823.6,5.01,0.00,29.8,29.1,00.0,38.9,31.6,11.4,0000.0,0010.20,0003.34,0001.85
2021-10-25 01:53:00,,0823.6,5.00,0.00,29.9,29.1,00.0,38.9,31.6,11.4,0000.0,0010.17,0003.33,0001.85
2021-10-25 01:54:00,,0823.7,5.01,0.00,29.9,29.1,00.0,38.9,31.7,11.3,0000.0,0010.14,0003.33,0001.85
2021-10-25 01:55:00,,0823.7,5.00,0.00,29.9,29.2,00.0,38.9,31.7,11.3,0000.0,0009.56,0003.36,0001.87
2021-10-25 01:56:00,,0823.7,5.00,0.00,29.9,29.2,00.0,39.0,31.7,11.3,0000.0,0009.57,0003.36,0001.88
2021-10-25 01:57:00,,0823.7,5.02,0.00,29.9,29.2,00.0,39.0,31.7,11.3,0000.0,0009.48,0003.29,0001.89
2021-10-25 01:58:00,,0823.7,5.00,0.00,29.9,29.2,00.0,38.9,31.7,11.3,0000.0,0009.60,0003.28,0001.87
2021-10-25 01:59:00,,0823.7,5.00,0.00,29.9,29.2,00.0,39.0,31.7,11.3,0000.0,0010.30,0003.31,0001.87
